Voltar ao catálogo

COSMOS 2251 DEB

LostLEO
NORAD 35285·DEBRIS·🇷🇺 Russia

Lançado Jun 16, 1993 de Plesetsk Cosmodrome

Loading…

Próximas Passagens (próximas 24 horas)

TLE

ObsoletoSource: Space-Track

Época: Dec 2, 2023, 10:25 UTC

1 35285U 93036AJP 23336.43430588  .00024636  00000-0  45144-2 0  9997
2 35285  74.0272 349.9954 0017192 275.7965  84.1244 14.65608586772177

Acompanhe COSMOS 2251 DEB em tempo real com AllMySat

Download on the App Store